TimeMDT,TemperatureF,Dew PointF,Humidity,Sea Level PressureIn,VisibilityMPH,Wind Direction,Wind SpeedMPH,Gust SpeedMPH,PrecipitationIn,Events,Conditions,WindDirDegrees,DateUTC
12:56 AM,32.0,28.0,85,30.01,-9999.0,NW,21.9,-,N/A,,Unknown,320,2012-10-19 06:56:00
1:56 AM,30.9,28.0,89,30.01,-9999.0,NW,19.6,-,N/A,,Unknown,320,2012-10-19 07:56:00
2:56 AM,30.0,27.0,88,30.02,-9999.0,WNW,11.5,-,N/A,,Unknown,300,2012-10-19 08:56:00
3:56 AM,28.9,27.0,92,30.02,-9999.0,WNW,9.2,-,N/A,,Unknown,300,2012-10-19 09:56:00
4:56 AM,30.9,28.9,92,30.01,-9999.0,NNW,15.0,-,N/A,,Unknown,330,2012-10-19 10:56:00
5:56 AM,30.9,28.0,89,30.01,-9999.0,NNW,15.0,-,N/A,,Unknown,330,2012-10-19 11:56:00
6:56 AM,30.0,28.0,92,30.01,-9999.0,NNW,10.4,-,N/A,,Unknown,340,2012-10-19 12:56:00
7:56 AM,30.0,28.0,92,30.00,-9999.0,NNW,9.2,-,N/A,,Unknown,340,2012-10-19 13:56:00
8:56 AM,30.9,28.9,92,29.99,-9999.0,North,9.2,-,N/A,,Unknown,360,2012-10-19 14:56:00
9:56 AM,36.0,28.9,76,29.96,-9999.0,North,9.2,-,N/A,,Unknown,360,2012-10-19 15:56:00
10:56 AM,41.0,28.9,62,29.94,-9999.0,North,5.8,-,N/A,,Unknown,350,2012-10-19 16:56:00
11:56 AM,46.0,27.0,47,29.91,-9999.0,Variable,4.6,-,N/A,,Unknown,0,2012-10-19 17:56:00
12:56 PM,48.9,23.0,36,29.86,-9999.0,Variable,3.5,-,N/A,,Unknown,0,2012-10-19 18:56:00
1:56 PM,53.1,17.1,24,29.82,-9999.0,Calm,Calm,-,N/A,,Unknown,0,2012-10-19 19:56:00
2:56 PM,54.0,18.0,24,29.81,-9999.0,South,4.6,-,N/A,,Unknown,180,2012-10-19 20:56:00
3:56 PM,55.0,19.9,25,29.79,-9999.0,South,6.9,-,N/A,,Unknown,190,2012-10-19 21:56:00
4:56 PM,53.1,21.9,30,29.78,-9999.0,South,8.1,-,N/A,,Unknown,180,2012-10-19 22:56:00
5:56 PM,46.9,21.9,37,29.78,-9999.0,South,9.2,-,N/A,,Unknown,180,2012-10-19 23:56:00
6:56 PM,44.1,21.9,42,29.77,-9999.0,SSE,11.5,-,N/A,,Unknown,160,2012-10-20 00:56:00
7:56 PM,46.0,23.0,40,29.76,-9999.0,SSE,11.5,-,N/A,,Unknown,160,2012-10-20 01:56:00
8:56 PM,44.1,21.0,40,29.75,-9999.0,SSE,16.1,-,N/A,,Unknown,160,2012-10-20 02:56:00
9:56 PM,43.0,19.0,38,29.74,-9999.0,South,17.3,-,N/A,,Unknown,170,2012-10-20 03:56:00
10:56 PM,42.1,19.0,40,29.72,-9999.0,South,18.4,-,N/A,,Unknown,180,2012-10-20 04:56:00
11:56 PM,41.0,19.0,41,29.70,-9999.0,South,17.3,-,N/A,,Unknown,170,2012-10-20 05:56:00